Fort Myers, FL

6:35 PM EST on December 02, 2016 (GMT -0500)
Southwest Florida International

Weather History for KRSW - October, 2013

Change the Weather History Date:

Wednesday, October 2, 2013

  Actual Average Record
Temperature  
Mean Temperature 80 °F -  
Max Temperature 89 °F 88 °F 94 °F (1986)
Min Temperature 73 °F 72 °F 61 °F (1976)
Cooling Degree Days 16    
Growing Degree Days 30 (Base 50)    
Moisture  
Dew Point 71 °F    
Average Humidity 75    
Maximum Humidity 91    
Minimum Humidity 55    
Precipitation  
Precipitation 0.00 in - - ()
Sea Level Pressure  
Sea Level Pressure 30.00 in    
Wind  
Wind Speed 9 mph (East)    
Max Wind Speed 15 mph    
Max Gust Speed 24 mph    
Visibility 10 miles    
Events      
Averages and records for this station are not official NWS values.
T = Trace of Precipitation, MM = Missing Value Source: NWS Daily Summary

Daily Weather History Graph

Daily Weather History Graph

Search for Another Location

Airport or City:

Trip Planner

Search our weather history database for the weather conditions in past years. The results will help you decide how hot, cold, wet, or windy it might be!

Date:

Astronomy

Oct. 02, 2013 Rise Set
Actual Time 7:20 AM EDT 7:12 PM EDT
Civil Twilight 6:56 AM EDT 7:35 PM EDT
Nautical Twilight 6:30 AM EDT 8:01 PM EDT
Astronomical Twilight 6:03 AM EDT 8:28 PM EDT
Moon 5:02 AM EDT 5:39 PM EDT
Length of Visible Light 12h 38m
Length of Day
11h 51m
Waning Crescent, 6% of the Moon is Illuminated
Oct 2
Waning Crescent
Oct 4
New
Oct 11
First Quarter
Oct 18
Full
Oct 26
Last Quarter

Hourly Weather History & Observations

Time (EDT) Temp. Heat Index Dew Point Humidity Pressure Visibility Wind Dir Wind Speed Gust Speed Precip Events Conditions
12:53 AM 75.0 °F - 70.0 °F 84% 30.03 in 10.0 mi ENE 5.8 mph - N/A   Clear
1:53 AM 73.9 °F - 70.0 °F 87% 30.02 in 10.0 mi East 8.1 mph - N/A   Clear
2:53 AM 73.9 °F - 71.1 °F 91% 30.01 in 10.0 mi ENE 6.9 mph - N/A   Clear
3:53 AM 73.9 °F - 71.1 °F 91% 29.99 in 10.0 mi ENE 6.9 mph - N/A   Clear
4:53 AM 73.0 °F - 70.0 °F 90% 29.98 in 10.0 mi NE 8.1 mph - N/A   Clear
5:53 AM 73.9 °F - 70.0 °F 87% 29.98 in 10.0 mi ENE 8.1 mph - N/A   Clear
6:53 AM 73.0 °F - 70.0 °F 90% 29.99 in 10.0 mi ENE 6.9 mph - N/A   Clear
7:53 AM 73.9 °F - 70.0 °F 87% 30.01 in 10.0 mi NE 6.9 mph - N/A   Clear
8:53 AM 75.9 °F - 71.1 °F 85% 30.02 in 10.0 mi ENE 11.5 mph - N/A   Clear
9:53 AM 80.1 °F 83.6 °F 71.1 °F 74% 30.03 in 10.0 mi ENE 15.0 mph - N/A   Clear
10:53 AM 82.9 °F 87.5 °F 71.1 °F 67% 30.03 in 10.0 mi East 13.8 mph - N/A   Scattered Clouds
11:53 AM 84.9 °F 90.1 °F 71.1 °F 63% 30.02 in 10.0 mi East 12.7 mph 20.7 mph N/A   Partly Cloudy
12:53 PM 87.1 °F 92.8 °F 71.1 °F 59% 30.00 in 10.0 mi East 15.0 mph - N/A   Scattered Clouds
1:53 PM 88.0 °F 92.9 °F 70.0 °F 55% 29.98 in 10.0 mi East 15.0 mph - N/A   Scattered Clouds
2:53 PM 87.1 °F 92.0 °F 70.0 °F 57% 29.96 in 10.0 mi East 15.0 mph 24.2 mph N/A   Mostly Cloudy
3:53 PM 86.0 °F 90.7 °F 70.0 °F 59% 29.95 in 10.0 mi ENE 13.8 mph - N/A   Overcast
4:53 PM 84.9 °F 88.8 °F 69.1 °F 59% 29.96 in 10.0 mi East 11.5 mph - N/A   Overcast
5:53 PM 84.0 °F 87.8 °F 69.1 °F 61% 29.96 in 10.0 mi East 9.2 mph - N/A   Overcast
6:53 PM 82.0 °F 86.3 °F 71.1 °F 69% 29.99 in 10.0 mi ESE 6.9 mph - N/A   Overcast
7:53 PM 78.1 °F - 73.0 °F 84% 30.01 in 10.0 mi SSE 4.6 mph - N/A   Overcast
8:53 PM 79.0 °F - 73.0 °F 82% 30.01 in 10.0 mi East 3.5 mph - N/A   Overcast
9:53 PM 79.0 °F - 72.0 °F 79% 30.03 in 10.0 mi East 6.9 mph - N/A   Overcast
10:53 PM 79.0 °F - 70.0 °F 74% 30.04 in 10.0 mi East 8.1 mph - N/A   Mostly Cloudy
11:53 PM 78.1 °F - 70.0 °F 76% 30.04 in 10.0 mi East 10.4 mph - N/A   Mostly Cloudy